Flag for Yemen Weather past 2 weeks in Al Hudaydah, Yemen

Now
81 °F

Clear.


Feels Like: 83 °F
Forecast: 75 / 83 °F
Wind: 22 mph from South

Location: Hodeidah

Current Time: Jan 26, 2015 at 11:55:10 AM

Latest Report: Jan 26, 2015 at 11:00 AM


Visibility: 4 mi

Pressure: 30.04 "Hg

Humidity: 62%

Dew point: 66 °F

Location of Al HudaydahLocation

Historic Weather in Al Hudaydah — Graph

°F

Al Hudaydah temperature yesterday

Maximum temperature yesterday: 84 °F (at 1:00 PM)
Minimum temperature yesterday: 68 °F (at 6:00 AM)
Average temperature yesterday: 77 °F

Past Weeks' High & Low Weather Summary

 TemperatureHumidityPressure
High84 °F (Jan 12, 11:00 AM)100% (Jan 18, 7:00 AM)30.09 "Hg (Jan 18, 7:00 AM)
Low68 °F (Jan 25, 6:00 AM)55% (Jan 25, 1:00 PM)29.86 "Hg (Jan 24, 4:00 PM)
Average78 °F77%29.99 "Hg
* Reported Jan 12 9:00 AM — Jan 26 10:00 AM, Al Hudaydah, Weather by CustomWeather, © 2014

Note: Actual official high and low records may vary slightly from our data, if they occured in-between our weather recording intervals... More about our weather records

Advertising

Al Hudaydah weather history for previous 24 hours

 ConditionsComfort  
Time TempWeatherWind HumidityBarometerVisibility
10:00 AM
Jan 26
79 °FSunny.17 mph70%30.04 "Hg10 mi
9:00 AM77 °FPassing clouds.9 mph69%30.04 "HgN/A
8:00 AM72 °FClear.5 mph78%30.04 "Hg4 mi
7:00 AM70 °FHaze.5 mph83%30.01 "Hg3 mi
6:00 AM70 °FClear.6 mph83%30.01 "Hg4 mi
5:00 AM70 °FPassing clouds.5 mph88%30.01 "Hg4 mi
4:00 AM72 °FPassing clouds.6 mph83%29.98 "Hg4 mi
3:00 AM75 °FClear.13 mph78%29.98 "Hg4 mi
2:00 AM75 °FClear.15 mph78%29.98 "Hg4 mi
1:00 AM77 °FClear.16 mph74%29.98 "Hg4 mi
12:00 AM77 °FClear.20 mph74%30.01 "Hg4 mi
11:00 PM
Jan 25
77 °FClear.16 mph74%30.01 "Hg4 mi
10:00 PM77 °FClear.18 mph74%30.01 "Hg4 mi
9:00 PM77 °FClear.16 mph79%29.98 "Hg4 mi
8:00 PM77 °FLow level haze.20 mph79%29.98 "Hg3 mi
7:00 PM79 °FLow level haze.21 mph74%29.98 "Hg2 mi
6:00 PM79 °FLow level haze.22 mph74%29.95 "Hg1 mi
5:00 PM81 °FLow level haze.23 mph70%29.92 "Hg1 mi
4:00 PM82 °FLow level haze.24 mph66%29.92 "Hg1 mi
3:00 PM82 °FLow level haze.23 mph66%29.92 "Hg1 mi
2:00 PM82 °FLow level haze.26 mph62%29.95 "Hg2 mi
1:00 PM84 °FClear.23 mph55%29.98 "Hg4 mi
12:00 PM82 °FClear.20 mph58%30.01 "Hg5 mi
11:00 AM81 °FPassing clouds.16 mph62%30.04 "HgN/A
Weather by CustomWeather, © 2014

See weather overviewHow to use our weather pages